Hourly Weather Yulara

Today, 14 July, Tuesday

Time Temperature Precipitation Wind Pressure Humidity
00:00 +6°C° 0 mm 4 mps 722 mmHg 59%
01:00 +5°C° 0 mm 4 mps 722 mmHg 61%
02:00 +4°C° 0 mm 4 mps 722 mmHg 64%
03:00 +4°C° 0 mm 4 mps 723 mmHg 67%
04:00 +3°C° 0 mm 3 mps 723 mmHg 70%
05:00 +3°C° 0 mm 3 mps 723 mmHg 73%
06:00 +2°C° 0 mm 3 mps 723 mmHg 76%
07:00 +4°C° 0 mm 3 mps 723 mmHg 68%
08:00 +6°C° 0 mm 4 mps 724 mmHg 60%
09:00 +8°C° 0 mm 4 mps 724 mmHg 51%
10:00 +12°C° 0 mm 4 mps 724 mmHg 44%
11:00 +14°C° 0 mm 5 mps 723 mmHg 36%
12:00 +16°C° 0 mm 5 mps 722 mmHg 28%
13:00 +18°C° 0 mm 4 mps 722 mmHg 24%
14:00 +19°C° 0 mm 3 mps 721 mmHg 21%
15:00 +20°C° 0 mm 3 mps 721 mmHg 18%
16:00 +17°C° 0 mm 3 mps 721 mmHg 22%
17:00 +14°C° 0 mm 3 mps 720 mmHg 26%
18:00 +12°C° 0 mm 3 mps 720 mmHg 30%
19:00 +11°C° 0 mm 3 mps 720 mmHg 33%
20:00 +10°C° 0 mm 3 mps 721 mmHg 36%
21:00 +9°C° 0 mm 3 mps 721 mmHg 40%
22:00 +8°C° 0 mm 3 mps 721 mmHg 44%
23:00 +7°C° 0 mm 3 mps 721 mmHg 49%

Tomorrow, 15 July, Wednesday

Time Temperature Precipitation Wind Pressure Humidity
00:00 +6°C° 0 mm 2 mps 721 mmHg 54%
01:00 +4°C° 0 mm 3 mps 721 mmHg 55%
02:00 +4°C° 0 mm 3 mps 721 mmHg 56%
03:00 +4°C° 0 mm 3 mps 721 mmHg 58%
04:00 +3°C° 0 mm 3 mps 721 mmHg 60%
05:00 +3°C° 0 mm 3 mps 721 mmHg 62%
06:00 +3°C° 0 mm 3 mps 721 mmHg 64%
07:00 +5°C° 0 mm 3 mps 722 mmHg 56%
08:00 +8°C° 0 mm 3 mps 722 mmHg 49%
09:00 +10°C° 0 mm 3 mps 722 mmHg 42%
10:00 +13°C° 0 mm 2 mps 722 mmHg 36%
11:00 +16°C° 0 mm 2 mps 722 mmHg 31%
12:00 +18°C° 0 mm 2 mps 722 mmHg 25%
13:00 +19°C° 0 mm 2 mps 721 mmHg 23%
14:00 +20°C° 0 mm 2 mps 720 mmHg 21%
15:00 +21°C° 0 mm 2 mps 720 mmHg 18%
16:00 +19°C° 0 mm 3 mps 720 mmHg 22%
17:00 +16°C° 0 mm 3 mps 720 mmHg 25%
18:00 +13°C° 0 mm 3 mps 720 mmHg 29%
19:00 +12°C° 0 mm 3 mps 720 mmHg 32%
20:00 +11°C° 0 mm 3 mps 721 mmHg 35%
21:00 +10°C° 0 mm 3 mps 721 mmHg 38%
22:00 +9°C° 0 mm 3 mps 721 mmHg 39%
23:00 +8°C° 0 mm 3 mps 721 mmHg 40%

Day after tomorrow, 16 July, Thursday

Time Temperature Precipitation Wind Pressure Humidity
00:00 +7°C° 0 mm 3 mps 721 mmHg 41%
01:00 +7°C° 0 mm 3 mps 721 mmHg 44%
02:00 +5°C° 0 mm 3 mps 721 mmHg 47%
03:00 +4°C° 0 mm 3 mps 720 mmHg 50%
04:00 +4°C° 0 mm 3 mps 721 mmHg 54%
05:00 +3°C° 0 mm 3 mps 721 mmHg 58%
06:00 +4°C° 0 mm 2 mps 721 mmHg 62%
07:00 +5°C° 0 mm 3 mps 722 mmHg 54%
08:00 +8°C° 0 mm 3 mps 722 mmHg 47%
09:00 +11°C° 0 mm 3 mps 723 mmHg 39%
10:00 +13°C° 0 mm 4 mps 722 mmHg 34%
11:00 +15°C° 0 mm 4 mps 722 mmHg 29%
12:00 +19°C° 0 mm 5 mps 722 mmHg 23%
13:00 +20°C° 0 mm 5 mps 721 mmHg 21%
14:00 +21°C° 0 mm 5 mps 720 mmHg 19%
15:00 +22°C° 0 mm 5 mps 720 mmHg 16%
16:00 +19°C° 0 mm 4 mps 719 mmHg 19%
17:00 +17°C° 0 mm 4 mps 719 mmHg 22%
18:00 +14°C° 0 mm 4 mps 719 mmHg 25%
19:00 +13°C° 0 mm 4 mps 720 mmHg 28%
20:00 +12°C° 0 mm 4 mps 720 mmHg 30%
21:00 +11°C° 0 mm 4 mps 720 mmHg 32%
22:00 +10°C° 0 mm 4 mps 720 mmHg 35%
23:00 +8°C° 0 mm 4 mps 720 mmHg 38%

17 July, Friday

Time Temperature Precipitation Wind Pressure Humidity
00:00 +7°C° 0 mm 4 mps 720 mmHg 40%
01:00 +6°C° 0 mm 4 mps 720 mmHg 44%
02:00 +5°C° 0 mm 4 mps 719 mmHg 48%
03:00 +4°C° 0 mm 3 mps 719 mmHg 52%
04:00 +4°C° 0 mm 3 mps 719 mmHg 55%
05:00 +3°C° 0 mm 3 mps 719 mmHg 58%
06:00 +3°C° 0 mm 3 mps 719 mmHg 61%
07:00 +5°C° 0 mm 3 mps 720 mmHg 53%
08:00 +8°C° 0 mm 3 mps 720 mmHg 45%
09:00 +11°C° 0 mm 4 mps 720 mmHg 37%
10:00 +13°C° 0 mm 3 mps 720 mmHg 32%
11:00 +17°C° 0 mm 3 mps 720 mmHg 27%
12:00 +19°C° 0 mm 3 mps 719 mmHg 21%
13:00 +20°C° 0 mm 3 mps 718 mmHg 19%
14:00 +21°C° 0 mm 2 mps 718 mmHg 18%
15:00 +23°C° 0 mm 2 mps 717 mmHg 16%
16:00 +19°C° 0 mm 2 mps 716 mmHg 27%
17:00 +15°C° 0 mm 2 mps 716 mmHg 39%
18:00 +12°C° 0 mm 1 mps 716 mmHg 50%
19:00 +11°C° 0 mm 1 mps 716 mmHg 52%
20:00 +10°C° 0 mm 1 mps 717 mmHg 55%
21:00 +9°C° 0 mm 1 mps 717 mmHg 57%
22:00 +9°C° 0 mm 1 mps 717 mmHg 55%
23:00 +9°C° 0 mm 1 mps 717 mmHg 52%

18 July, Saturday

Time Temperature Precipitation Wind Pressure Humidity
00:00 +9°C° 0 mm 1 mps 717 mmHg 50%
01:00 +8°C° 0 mm 1 mps 716 mmHg 51%
02:00 +7°C° 0 mm 1 mps 716 mmHg 52%
03:00 +7°C° 0 mm 1 mps 716 mmHg 54%
04:00 +6°C° 0 mm 2 mps 716 mmHg 52%
05:00 +5°C° 0 mm 2 mps 716 mmHg 50%
06:00 +5°C° 0 mm 2 mps 716 mmHg 48%
07:00 +9°C° 0 mm 1 mps 716 mmHg 41%
08:00 +12°C° 0 mm 1 mps 717 mmHg 34%
09:00 +13°C° 0 mm 0 mps 717 mmHg 26%
10:00 +18°C° 0 mm 1 mps 717 mmHg 24%
11:00 +20°C° 0 mm 2 mps 717 mmHg 21%
12:00 +22°C° 0 mm 3 mps 717 mmHg 18%
13:00 +24°C° 0 mm 3 mps 717 mmHg 17%
14:00 +25°C° 0 mm 3 mps 716 mmHg 17%
15:00 +25°C° 0 mm 3 mps 716 mmHg 16%
16:00 +21°C° 0 mm 3 mps 716 mmHg 24%
17:00 +19°C° 0 mm 3 mps 716 mmHg 31%
18:00 +16°C° 0 mm 2 mps 716 mmHg 39%
19:00 +14°C° 0 mm 3 mps 716 mmHg 39%
20:00 +14°C° 0 mm 4 mps 717 mmHg 40%
21:00 +13°C° 0 mm 5 mps 717 mmHg 40%
22:00 +12°C° 0 mm 5 mps 717 mmHg 48%
23:00 +10°C° 0 mm 5 mps 718 mmHg 56%

19 July, Sunday

Time Temperature Precipitation Wind Pressure Humidity
00:00 +9°C° 0 mm 5 mps 718 mmHg 64%
01:00 +8°C° 0 mm 4 mps 718 mmHg 67%
02:00 +8°C° 0 mm 4 mps 718 mmHg 70%
03:00 +7°C° 0 mm 4 mps 718 mmHg 73%
04:00 +8°C° 0 mm 3 mps 718 mmHg 72%
05:00 +7°C° 0 mm 3 mps 719 mmHg 71%
06:00 +7°C° 0 mm 3 mps 719 mmHg 70%
07:00 +9°C° 0 mm 3 mps 720 mmHg 61%
08:00 +10°C° 0 mm 3 mps 720 mmHg 53%
09:00 +12°C° 0 mm 4 mps 721 mmHg 45%
10:00 +14°C° 0 mm 3 mps 720 mmHg 41%
11:00 +17°C° 0 mm 3 mps 720 mmHg 37%
12:00 +19°C° 0 mm 3 mps 720 mmHg 33%
13:00 +19°C° 0 mm 3 mps 719 mmHg 31%
14:00 +20°C° 0 mm 2 mps 719 mmHg 30%
15:00 +21°C° 0 mm 2 mps 718 mmHg 28%
16:00 +19°C° 0 mm 3 mps 719 mmHg 29%
17:00 +17°C° 0 mm 4 mps 719 mmHg 31%
18:00 +14°C° 0 mm 4 mps 719 mmHg 32%
19:00 +13°C° 0 mm 5 mps 719 mmHg 32%
20:00 +12°C° 0 mm 5 mps 720 mmHg 32%
21:00 +10°C° 0 mm 6 mps 721 mmHg 33%
22:00 +9°C° 0 mm 5 mps 721 mmHg 35%
23:00 +8°C° 0 mm 5 mps 721 mmHg 38%
Show more